カタログに戻る

CZ-6A DEB

運用中PO
NORAD 60966·DEBRIS·🇨🇳 China

打ち上げ Aug 6, 2024 から Taiyuan Satellite Launch Center

Loading…

次のパス (今後24時間)

TLE

最新Source: Space-Track

元期: Sep 14, 2026, 08:04 UTC

1 60966U 24140LR  26257.33679845  .00001298  00000-0  34750-3 0  9997
2 60966  88.8808 249.9416 0069931   0.1041   0.0165 14.46271430109103

AllMySatでCZ-6A DEBをリアルタイム追跡

Download on the App Store